Weather History for Pittsfield, MA

Change the Weather History Date:

Friday, October 12, 2012

  Actual Average Record
Temperature  
Mean Temperature 40 °F 49 °F  
Max Temperature 50 °F 59 °F 81 °F (1954)
Min Temperature 29 °F 38 °F 24 °F (1956)
Degree Days  
Heating Degree Days 25 16  
Month to date heating degree days 162 174  
Since 1 July heating degree days 388 466  
Cooling Degree Days 0 0  
Month to date cooling degree days 0 0  
Year to date cooling degree days 465 289  
Moisture  
Dew Point 33 °F    
Average Humidity 69    
Maximum Humidity 92    
Minimum Humidity 45    
Precipitation  
Precipitation 0.05 in 0.17 in 2.94 in (2002)
Month to date precipitation 0.75 2.06  
Year to date precipitation 28.17 35.80  
Sea Level Pressure  
Sea Level Pressure 30.11 in    
Wind  
Wind Speed 8 mph (WNW)    
Max Wind Speed 21 mph    
Max Gust Speed 26 mph    
Visibility 9 miles    
Events Rain    
T = Trace of Precipitation, MM = Missing Value Source: NWS Daily Summary

Daily Weather History Graph

Daily Weather History Graph

Search for Another Location

Airport:

Trip Planner

Search our weather history database for the weather conditions in past years. The results will help you decide how hot, cold, wet, or windy it might be!

Date:

Astronomy

Oct. 12, 2012 Rise Set
Actual Time 7:03 AM EDT 6:15 PM EDT
Civil Twilight 6:34 AM EDT 6:43 PM EDT
Nautical Twilight 6:02 AM EDT 7:15 PM EDT
Astronomical Twilight 5:29 AM EDT 7:48 PM EDT
Moon 3:39 AM EDT (10/12) 4:26 PM EDT (10/12)
Length of Visible Light 12h 08m
Length of Day
11h 12m
Waning Crescent, 11% of the Moon is Illuminated
Oct 12
Waning Crescent
Oct 15
New
Oct 21
First Quarter
Oct 29
Full
Nov 6
Last Quarter

Hourly Weather History & Observations

Time (EDT) Temp. Windchill Dew Point Humidity Pressure Visibility Wind Dir Wind Speed Gust Speed Precip Events Conditions
12:54 AM 45.0 °F 41.8 °F 33.1 °F 63% 30.04 in 10.0 mi Variable 5.8 mph - N/A   Clear
2:54 AM 41.0 °F 39.0 °F 33.1 °F 73% 30.01 in 10.0 mi WNW 3.5 mph - N/A   Clear
3:54 AM 37.0 °F - 33.1 °F 86% 29.99 in 10.0 mi Calm Calm - N/A   Clear
4:54 AM 37.0 °F - 34.0 °F 89% 29.99 in 10.0 mi Calm Calm - N/A   Clear
5:54 AM 37.9 °F - 35.1 °F 89% 29.99 in 10.0 mi Calm Calm - N/A   Clear
6:54 AM 43.0 °F 38.8 °F 35.1 °F 74% 30.01 in 10.0 mi WSW 6.9 mph - N/A   Overcast
7:54 AM 42.1 °F 37.1 °F 37.9 °F 85% 30.04 in 9.0 mi West 8.1 mph - 0.01 in Rain Light Rain
8:16 AM 42.8 °F 37.0 °F 39.2 °F 87% 30.04 in 3.0 mi WNW 10.4 mph 17.3 mph 0.01 in Rain Light Rain
8:27 AM 42.8 °F 37.5 °F 39.2 °F 87% 30.05 in 2.5 mi WNW 9.2 mph 18.4 mph 0.02 in Rain Light Rain
8:34 AM 41.0 °F 34.3 °F 39.2 °F 93% 30.06 in 4.0 mi NW 11.5 mph 21.9 mph 0.02 in Rain Light Rain
8:54 AM 41.0 °F 34.3 °F 37.0 °F 86% 30.08 in 4.0 mi WNW 11.5 mph 18.4 mph 0.03 in Rain Light Rain
8:58 AM 41.0 °F 34.7 °F 37.4 °F 87% 30.07 in 5.0 mi NW 10.4 mph 20.7 mph 0.01 in Rain Light Rain
9:25 AM 41.0 °F 36.4 °F 37.4 °F 87% 30.07 in 10.0 mi WNW 6.9 mph - 0.01 in Rain Light Rain
9:36 AM 41.0 °F 36.4 °F 37.4 °F 87% 30.08 in 10.0 mi West 6.9 mph - 0.01 in Rain Light Rain
9:45 AM 41.0 °F 38.0 °F 37.4 °F 87% 30.08 in 10.0 mi WNW 4.6 mph - 0.01 in Rain Light Rain
10:24 AM 42.8 °F 38.6 °F 37.4 °F 81% 30.09 in 10.0 mi WNW 6.9 mph - N/A   Overcast
10:54 AM 42.1 °F 36.6 °F 37.0 °F 82% 30.10 in 10.0 mi WNW 9.2 mph 19.6 mph N/A   Overcast
11:04 AM 42.8 °F 36.6 °F 35.6 °F 76% 30.09 in 10.0 mi WNW 11.5 mph - N/A   Overcast
11:17 AM 42.8 °F 37.0 °F 35.6 °F 76% 30.09 in 10.0 mi WNW 10.4 mph 19.6 mph N/A   Overcast
11:24 AM 42.8 °F 36.2 °F 35.6 °F 76% 30.09 in 10.0 mi NW 12.7 mph 18.4 mph N/A   Overcast
11:38 AM 42.8 °F 37.0 °F 35.6 °F 76% 30.09 in 10.0 mi West 10.4 mph 18.4 mph N/A   Overcast
11:54 AM 44.1 °F 37.4 °F 36.0 °F 73% 30.09 in 10.0 mi NW 13.8 mph - N/A   Overcast
12:07 PM 44.6 °F 38.4 °F 35.6 °F 71% 30.10 in - NW 12.7 mph 20.7 mph N/A   Unknown
12:54 PM 46.0 °F 39.6 °F 35.1 °F 66% 30.09 in 10.0 mi WNW 15.0 mph 20.7 mph N/A   Mostly Cloudy
1:54 PM 48.9 °F - 35.1 °F 59% 30.09 in 10.0 mi WNW 13.8 mph 23.0 mph N/A   Mostly Cloudy
2:54 PM 46.0 °F 40.2 °F 30.9 °F 56% 30.12 in 10.0 mi NW 12.7 mph 25.3 mph 0.00 in   Scattered Clouds
3:54 PM 45.0 °F 38.5 °F 26.1 °F 48% 30.15 in 10.0 mi NW 13.8 mph 23.0 mph 0.00 in   Partly Cloudy
4:54 PM 43.0 °F 36.8 °F 23.0 °F 45% 30.19 in 10.0 mi NW 11.5 mph 24.2 mph N/A   Partly Cloudy
6:54 PM 41.0 °F 34.7 °F 21.9 °F 47% 30.25 in 10.0 mi NW 10.4 mph - N/A   Mostly Cloudy
7:54 PM 39.9 °F 34.5 °F 21.9 °F 49% 30.29 in 10.0 mi NNW 8.1 mph 17.3 mph N/A   Mostly Cloudy
8:54 PM 37.0 °F 34.5 °F 21.0 °F 52% 30.32 in 10.0 mi Variable 3.5 mph - N/A   Clear
10:54 PM 34.0 °F - 19.9 °F 56% 30.37 in 10.0 mi Calm Calm - N/A   Clear
11:54 PM 30.9 °F 26.2 °F 19.9 °F 64% 30.38 in 10.0 mi WNW 4.6 mph - N/A   Clear